TimePST,TemperatureF,Dew PointF,Humidity,Sea Level PressureIn,VisibilityMPH,Wind Direction,Wind SpeedMPH,Gust SpeedMPH,PrecipitationIn,Events,Conditions,WindDirDegrees,DateUTC
12:56 AM,52.9,43.0,69,30.43,10.0,Variable,3.5,-,N/A,,Clear,0,2013-02-14 08:56:00
1:56 AM,50.9,43.9,77,30.43,10.0,North,5.8,-,N/A,,Clear,360,2013-02-14 09:56:00
2:56 AM,50.9,41.9,71,30.42,10.0,Variable,3.5,-,N/A,,Clear,0,2013-02-14 10:56:00
3:56 AM,52.9,41.0,64,30.41,10.0,North,9.2,-,N/A,,Clear,360,2013-02-14 11:56:00
4:56 AM,52.0,41.0,66,30.41,10.0,Variable,3.5,-,N/A,,Clear,0,2013-02-14 12:56:00
5:56 AM,48.9,41.9,77,30.41,10.0,Calm,Calm,-,N/A,,Clear,0,2013-02-14 13:56:00
6:56 AM,50.0,41.9,74,30.41,10.0,Variable,3.5,-,N/A,,Clear,0,2013-02-14 14:56:00
7:56 AM,54.0,38.8,57,30.40,10.0,NE,11.5,-,N/A,,Clear,50,2013-02-14 15:56:00
8:56 AM,56.8,38.8,51,30.42,10.0,ENE,8.1,-,N/A,,Unknown,60,2013-02-14 16:56:00
9:56 AM,59.9,39.9,48,30.41,10.0,Variable,6.9,-,N/A,,Clear,0,2013-02-14 17:56:00
10:56 AM,61.9,39.9,44,30.40,-9999.0,Variable,6.9,-,N/A,,Unknown,0,2013-02-14 18:56:00
11:56 AM,64.9,38.8,38,30.38,10.0,Variable,5.8,-,N/A,,Clear,0,2013-02-14 19:56:00
12:56 PM,68.0,34.9,29,30.35,10.0,ENE,6.9,-,N/A,,Clear,60,2013-02-14 20:56:00
1:56 PM,68.9,36.0,30,30.32,10.0,NNE,5.8,-,N/A,,Clear,30,2013-02-14 21:56:00
2:56 PM,68.9,34.0,28,30.30,10.0,NE,8.1,-,N/A,,Clear,40,2013-02-14 22:56:00
3:56 PM,68.9,32.9,26,30.30,10.0,Variable,4.6,-,N/A,,Clear,0,2013-02-14 23:56:00
4:56 PM,68.0,32.9,27,30.30,10.0,ENE,8.1,-,N/A,,Clear,60,2013-02-15 00:56:00
5:56 PM,64.9,34.9,33,30.29,10.0,Variable,6.9,-,N/A,,Clear,0,2013-02-15 01:56:00
6:56 PM,64.9,34.0,32,30.28,10.0,NNE,8.1,-,N/A,,Clear,20,2013-02-15 02:56:00
7:56 PM,63.0,36.0,37,30.27,10.0,Variable,4.6,-,N/A,,Clear,0,2013-02-15 03:56:00
8:56 PM,61.9,36.0,38,30.27,10.0,NE,8.1,-,N/A,,Clear,40,2013-02-15 04:56:00
9:56 PM,63.9,36.0,36,30.27,10.0,NE,9.2,-,N/A,,Clear,50,2013-02-15 05:56:00
10:56 PM,63.0,36.0,37,30.27,10.0,NE,9.2,-,N/A,,Clear,50,2013-02-15 06:56:00
11:56 PM,63.0,36.0,37,30.26,10.0,NE,12.7,-,N/A,,Clear,50,2013-02-15 07:56:00